Regional Weather Roundup
Issued by NWS

Home | Current Version | Previous Version | Graphics & Text | Print | Product List | Glossary On
Versions: 1 2 3 4 5 6 7 8 9 10 11 12 13 14 15 16 17 18 19 20 21 22 23 24 25 26 27 28 29 30 31 32 33 34 35 36 37 38 39 40 41 42 43 44 45 46 47 48 49 50
984
ASUS43 KDMX 222201
RWRIA

WEATHER ROUNDUP FOR IOWA
NATIONAL WEATHER SERVICE DES MOINES IA
400 PM CST WED FEB 22 2017

NOTE: "FAIR" INDICATES FEW OR NO CLOUDS BELOW 12,000 FEET WITH NO
SIGNIFICANT WEATHER AND/OR OBSTRUCTIONS TO VISIBILITY.

* - THESE STATIONS ARE NOT NWS STATIONS...THUS NOT UNDER NWS
QUALITY CONTROL.  THEY ALSO DO NOT REPORT WEATHER SUCH
AS PRECIPITATION OR FOG.

IAZ001>003-012>014-020>022-031>034-043>046-222300-
   NORTHWEST IOWA

CITY           SKY/WX    TMP DP  RH WIND       PRES   REMARKS
CARROLL *      SUNNY     68  43  40 NW17G24   29.62R
CHEROKEE *     SUNNY     64  39  39 NW12G23   29.62F
DENISON *      SUNNY     66  39  37 NW14G22   29.62R
LE MARS *      SUNNY     64  41  42 NW14G24   29.66R
ORANGE CITY *  SUNNY     61  45  55 W21G26    29.65R
SHELDON *      SUNNY     63  46  55 NW21      29.62R
SIOUX CITY     SUNNY     68  36  30 NW24G30   29.64S
SPENCER        SUNNY     63  44  50 W20G28    29.62R
STORM LAKE *   SUNNY     63  41  45 NW22G28   29.63R
$$

IAZ055>058-069>071-079>083-090>094-222300-
   SOUTHWEST IOWA

CITY           SKY/WX    TMP DP  RH WIND       PRES   REMARKS
ATLANTIC *     SUNNY     70  41  35 NW14      29.63S
CLARINDA *     SUNNY     72  39  30 NW10      29.65S
COUNCIL BLFS * SUNNY     70  37  30 NW16      29.63S
CRESTON *      SUNNY     70  39  32 NW13G20   29.63S
HARLAN  *      SUNNY     68  39  34 NW17G24   29.67S
LAMONI         SUNNY     74  35  24 W10       29.61S
RED OAK *      SUNNY     72  41  33 NW9       29.63S
SHENANDOAH *   SUNNY     73  39  29 W8        29.64S
$$

IAZ047>049-059>061-072>074-084-222300-
   CENTRAL IOWA

CITY           SKY/WX    TMP DP  RH WIND       PRES   REMARKS
AMES           SUNNY     67  47  48 W13       29.59R
ANKENY *       SUNNY     68  41  37 W14G21    29.60R
BOONE *        SUNNY     68  43  40 W15       29.59R
CHARITON *     SUNNY     72  36  26 W13G22    29.60R
DES MOINES     MOSUNNY   72  38  29 W14       29.59S
GRINNELL*      SUNNY     69  36  29 W18       29.59R
KNOXVILLE *    SUNNY     72  34  25 W17G23    29.57S
MARSHALLTOWN   SUNNY     66  42  41 W15       29.57R
NEWTON *       SUNNY     68  39  34 W15G22    29.58R
PELLA *        SUNNY     72  33  24 W14       29.59R
PERRY *          N/A     67  41  37 NW13      29.60S
$$

IAZ004>006-015-016-023>025-035-036-222300-
   NORTH CENTRAL IOWA

CITY           SKY/WX    TMP DP  RH WIND       PRES   REMARKS
ALGONA *       SUNNY     63  48  59 NW7G14    29.61R
CLARION *      SUNNY     64  50  59 NW10      29.59R
ESTHERVILLE    SUNNY     60  47  61 W16       29.60R
FORT DODGE *   SUNNY     66  46  48 NW13G21   29.61R
MASON CITY     SUNNY     60  45  57 NW14      29.60R
FOREST CITY *    N/A     61  45  55 NW9       29.59S
WEBSTER CITY * SUNNY     66  46  48 NW21      29.57R
IOWA FALLS *     N/A     66  47  51 W15       29.59R
$$

IAZ007>011-017>019-026>030-037>042-050>054-066-222300-
   NORTHEAST IOWA

CITY           SKY/WX    TMP DP  RH WIND       PRES   REMARKS
CEDAR RAPIDS   SUNNY     73  43  33 W20G26    29.53S
CHARLES CITY * SUNNY     59  48  67 W12G20    29.57S
CLINTON *      SUNNY     71  52  50 S22       29.55F
DECORAH *      SUNNY     63  43  48 S9        29.53F
DUBUQUE        SUNNY     69  48  47 S22       29.53F
MONTICELLO *   SUNNY     73  46  38 SW15G23   29.52F
OELWEIN *      SUNNY     64  46  52 W18       29.55R
WATERLOO       SUNNY     65  43  44 W13       29.55S
$$

IAZ064-065-067-068-078-222300-
   EAST CENTRAL IOWA

CITY           SKY/WX    TMP DP  RH WIND       PRES   REMARKS
DAVENPORT      SUNNY     70  51  51 S23G32    29.56F
IOWA CITY      SUNNY     77  41  27 SW15G24   29.55F
MUSCATINE *    SUNNY     72  54  53 S15G28    29.57S
QUAD CITIES    SUNNY     72  52  49 S21G30    29.55F
$$

IAZ062-063-075>077-085>089-095>099-222300-
   SOUTHEAST IOWA

CITY           SKY/WX    TMP DP  RH WIND       PRES   REMARKS
BURLINGTON     SUNNY     69  51  52 S18G30    29.59F
FAIRFIELD *    SUNNY     75  41  29 SW20G26   29.57S
KEOKUK *       SUNNY     70  54  56 S21G28    29.60F
OTTUMWA        SUNNY     76  37  24 SW20G29   29.57S
WASHINGTON *   SUNNY     75  43  31 SW17G26   29.57S
$$

ABBREVIATIONS USED IN REMARKS
   TC - TEMPERATURES IN CELSIUS
  WCI - WIND CHILL INDEX
   HX - HEAT INDEX
  VSB - VISIBILITY
$$





USA.gov is the U.S. government's official web portal to all federal, state and local government web resources and services.